Station GDMM5 - 9099090 - Grand Marais, MN Image indicating link to RSS feed of recent meteorological observations for station GDMM5


Conditions at GDMM5 as of
(8:48 pm CDT on 07/13/2024)
0148 GMT on 07/14/2024:
     

Click on the graph icon in the table below to see a time series plot of the last five days of that observation.

5-day plot - Atmospheric Pressure Atmospheric Pressure (PRES):29.86 in
5-day plot - Water Temperature Water Temperature (WTMP): 52.7 °F
NOS Water Level Observation Network Water Level
Previous observations
TIME
(CDT)
5-day plot - Wind Direction
WDIR
 
5-day plot - Wind Speed
WSPD
kts
5-day plot - Wind Gust
GST
kts
5-day plot - Wave Height
WVHT
ft
5-day plot - Dominant Wave Period
DPD
sec
5-day plot - Average Wave Period
APD
sec
5-day plot - Mean Wave Direction
MWD
 
5-day plot - Atmospheric Pressure
PRES
in
5-day plot - Pressure Tendency
PTDY
in
5-day plot - Air Temperature
ATMP
°F
5-day plot - Water Temperature
WTMP
°F
5-day plot - Dew Point
DEWP
°F
5-day plot - Salinity
SAL
psu
5-day plot - Visibility
VIS
nmi
5-day plot - Tide (above MLLW)
TIDE
ft
2024-07-13 08:42 pm-------29.85-- 52.7----
2024-07-13 08:36 pm-------29.85-- 52.7----
2024-07-13 08:30 pm-------29.86- 73.0 52.7 71.2---
2024-07-13 08:24 pm-------29.87- 73.4 52.7 71.2---
2024-07-13 08:18 pm-------29.87-- 52.7----
2024-07-13 08:12 pm-------29.87-- 52.7----
2024-07-13 08:06 pm-------29.87-- 52.7----
2024-07-13 08:00 pm-------29.87+0.00 72.1 52.7 71.4---
2024-07-13 07:54 pm-------29.87- 72.3 52.7 71.4---
2024-07-13 07:48 pm---------- 52.9----
2024-07-13 07:42 pm---------- 52.9----
2024-07-13 07:36 pm---------- 52.7----
2024-07-13 07:30 pm-------29.87- 73.9 52.7 71.4---
2024-07-13 07:24 pm-------29.87- 73.2 52.9 71.1---
2024-07-13 07:18 pm-------29.87- 73.9 52.9 71.2---
2024-07-13 07:12 pm-------29.86- 72.9 52.9 70.9---
2024-07-13 07:06 pm-------29.86- 72.5 52.7 71.2---
2024-07-13 07:00 pm-------29.86-0.03 73.0 52.9 71.1---
2024-07-13 06:54 pm-------29.86- 73.0 52.7 71.6---
2024-07-13 06:48 pm-------29.86- 73.4 52.7 71.1---
2024-07-13 06:42 pm-------29.86- 73.2 52.7 70.9---
2024-07-13 06:36 pm-------29.86- 73.4 52.7 70.9---
2024-07-13 06:30 pm-------29.86- 73.2 52.7 71.4---
2024-07-13 06:24 pm-------29.86- 72.9 52.7 70.7---
2024-07-13 06:18 pm-------29.87- 73.2 52.7 70.7---
2024-07-13 06:12 pm-------29.87- 73.2 52.7 70.3---
2024-07-13 06:06 pm-------29.86- 73.4 52.7 70.3---
2024-07-13 06:00 pm-------29.85-0.06 73.9 52.7 70.9---
2024-07-13 05:54 pm-------29.84- 73.2 52.7 70.5---
2024-07-13 05:48 pm-------29.85- 72.7 52.7 70.2---
2024-07-13 05:42 pm-------29.85- 72.5 52.7 70.2---
2024-07-13 05:36 pm-------29.85- 72.5 52.7 70.5---
2024-07-13 05:30 pm-------29.85-- 52.7----
2024-07-13 05:24 pm-------29.85-- 52.7----
2024-07-13 05:18 pm-------29.86- 72.5 52.7 70.3---
2024-07-13 05:12 pm-------29.86- 72.9 52.7 70.5---
2024-07-13 05:06 pm-------29.86- 73.6 52.7 71.2---
2024-07-13 05:00 pm-------29.87-0.06 73.2 52.7----
2024-07-13 04:54 pm-------29.87- 73.0 52.7----
2024-07-13 04:48 pm-------29.88- 73.6 52.7 71.6---
2024-07-13 04:42 pm-------29.88- 74.7 52.7 72.0---
2024-07-13 04:36 pm-------29.88- 74.7 52.7 72.0---
2024-07-13 04:30 pm-------29.89-- 52.7----
2024-07-13 04:24 pm-------29.89-- 52.7----
2024-07-13 04:18 pm-------29.89- 73.2 52.7 72.5---
2024-07-13 04:12 pm-------29.89- 73.6 52.7 72.5---
2024-07-13 04:06 pm-------29.89- 73.8 52.7 72.5---
2024-07-13 04:00 pm-------29.89-0.05 73.8 52.7 72.9---
2024-07-13 03:54 pm-------29.89- 74.5 52.7 72.5---
2024-07-13 03:48 pm-------29.90- 74.8 52.7 72.3---
2024-07-13 03:42 pm-------29.90- 75.0 52.7 72.0---
2024-07-13 03:36 pm-------29.90- 74.8 52.7 72.0---
2024-07-13 03:30 pm-------29.90-- 52.7----
2024-07-13 03:24 pm-------29.90-- 52.7----
2024-07-13 03:18 pm-------29.90- 75.4 52.7 71.8---
2024-07-13 03:12 pm-------29.90- 75.9 52.7 71.2---
2024-07-13 03:06 pm-------29.91- 75.0 52.7 71.1---
2024-07-13 03:00 pm-------29.91-0.05- 52.7----
2024-07-13 02:54 pm-------29.91-- 52.7----
2024-07-13 02:48 pm-------29.91-- 52.7----
2024-07-13 02:42 pm-------29.91-- 52.7----
2024-07-13 02:36 pm-------29.92-- 52.7----
2024-07-13 02:30 pm-------29.92- 75.6 52.7 70.9---
2024-07-13 02:24 pm-------29.92- 76.1 52.7 70.3---
2024-07-13 02:18 pm-------29.93- 76.5 52.7 70.7---
2024-07-13 02:12 pm-------29.93- 75.2 52.7 70.0---
2024-07-13 02:06 pm-------29.93- 74.5 52.7 70.0---
2024-07-13 02:00 pm-------29.93-0.04- 52.7----
2024-07-13 01:54 pm-------29.93-- 52.7----
2024-07-13 01:48 pm-------29.94- 74.1 52.7 70.9---
2024-07-13 01:42 pm-------29.94- 73.9 52.7 70.9---
2024-07-13 01:36 pm-------29.94- 73.4 52.7 71.1---
2024-07-13 01:30 pm-------29.95- 72.7 52.7 70.9---
2024-07-13 01:24 pm-------29.94- 73.6 52.7 70.5---
2024-07-13 01:18 pm-------29.94- 73.9 52.7 70.5---
2024-07-13 01:12 pm-------29.94- 73.4 52.7 70.0---
2024-07-13 01:06 pm-------29.94- 74.3 52.7 69.6---
2024-07-13 01:00 pm-------29.94- 73.9 52.7 70.2---
2024-07-13 12:54 pm-------29.94- 73.8 52.7 70.3---
2024-07-13 12:48 pm-------29.94-------
2024-07-13 12:42 pm-------29.94-------
2024-07-13 12:36 pm-------29.94-------
2024-07-13 12:30 pm-------29.95- 73.4 52.7 70.3---
2024-07-13 12:24 pm-------29.95- 72.7 52.7 69.6---
2024-07-13 12:18 pm-------29.96- 72.1 52.7 69.8---
2024-07-13 12:12 pm-------29.96- 72.0 52.7 69.6---
2024-07-13 12:06 pm-------29.96- 72.0 52.7 69.6---
2024-07-13 12:00 pm-------29.96-0.04- 52.7----
2024-07-13 11:54 am-------29.96-- 52.7----
2024-07-13 11:48 am-------29.96- 72.0 52.5 69.8---
2024-07-13 11:42 am-------29.96- 71.1 52.5 69.4---
2024-07-13 11:36 am-------29.96- 71.1 52.7 69.4---
2024-07-13 11:30 am--------- 71.1 52.5 69.3---
2024-07-13 11:24 am--------- 71.1 52.5 69.3---
2024-07-13 11:18 am-------29.96-------
2024-07-13 11:12 am-------29.97-------
2024-07-13 11:06 am-------29.97-------
2024-07-13 11:00 am-------29.97-0.03 70.7 52.5 69.1---
2024-07-13 10:54 am-------29.97- 71.1 52.5 69.1---
2024-07-13 10:48 am-------29.97- 70.9 52.5 69.3---
2024-07-13 10:42 am-------29.97- 70.5 52.5 68.7---
2024-07-13 10:36 am-------29.97- 71.1 52.5 69.3---
2024-07-13 10:30 am-------29.97- 70.9 52.5 69.1---
2024-07-13 10:24 am-------29.97- 70.7 52.5 69.1---
2024-07-13 10:18 am-------29.97- 70.7 52.5 69.1---
2024-07-13 10:12 am-------29.97- 71.4 52.7 69.3---
2024-07-13 10:06 am-------29.97- 72.5 52.7 69.4---
2024-07-13 09:54 am-------29.98- 71.2 52.7 69.4---
2024-07-13 09:48 am-------29.98- 71.2 52.5 69.6---
2024-07-13 09:42 am-------29.98- 70.7 52.5 69.6---
2024-07-13 09:36 am-------29.99- 70.2 52.5 69.1---
2024-07-13 09:30 am-------29.99- 70.9 52.5 69.1---
2024-07-13 09:24 am-------29.99- 69.8 52.5 68.9---
2024-07-13 09:18 am-------29.99- 69.8 52.5 68.9---
2024-07-13 09:12 am-------29.99- 69.8 52.5 68.9---
2024-07-13 09:06 am-------30.00- 70.9 52.5 69.1---
2024-07-13 09:00 am-------30.00+0.00 70.3 52.5 68.9---
2024-07-13 08:54 am-------30.00- 69.6 52.5 68.5---
2024-07-13 08:48 am-------30.00- 70.0 52.5 68.7---
2024-07-13 08:42 am-------30.00- 69.8 52.5 68.4---
2024-07-13 08:36 am-------30.00- 70.3 52.5 68.7---
2024-07-13 08:30 am-------30.00- 70.5 52.3 68.4---
2024-07-13 08:24 am-------30.00- 70.0 52.5 68.2---
2024-07-13 08:18 am-------30.00- 71.1 52.3 68.2---
2024-07-13 08:12 am-------30.00- 70.0 52.3 68.0---
2024-07-13 08:06 am-------30.00- 68.5 52.3 67.6---
2024-07-13 08:00 am-------30.00+0.02 68.2 52.3 67.3---
2024-07-13 07:54 am-------30.00- 68.9 52.3 67.3---
2024-07-13 07:48 am-------30.00- 69.4 52.3 67.3---
2024-07-13 07:42 am-------30.00- 69.3 52.3 66.6---
2024-07-13 07:36 am-------30.00- 69.3 52.3 66.9---
2024-07-13 07:30 am-------30.00- 70.3 52.3 66.7---
2024-07-13 07:24 am-------30.00- 69.4 52.3 67.5---
2024-07-13 07:18 am-------29.99- 69.1 52.3 67.5---
2024-07-13 07:12 am-------29.99- 68.5 52.3 66.9---
2024-07-13 07:06 am-------29.99- 68.7 52.3 66.9---
2024-07-13 07:00 am-------29.99+0.00 67.8 52.3 66.6---
2024-07-13 06:54 am-------29.99- 68.4 52.3 67.3---
2024-07-13 06:48 am-------29.99-- 52.3----
2024-07-13 06:42 am-------29.99-- 52.3----
2024-07-13 06:36 am-------29.99-- 52.3----
2024-07-13 06:30 am-------30.00-- 52.3----
2024-07-13 06:24 am-------30.00-- 52.3----
2024-07-13 06:18 am-------30.00- 65.7 52.3 65.7---
2024-07-13 06:12 am-------29.99- 65.3 52.3 65.3---
2024-07-13 06:06 am-------29.99- 65.1 52.3 65.1---
2024-07-13 06:00 am-------29.99- 64.8 52.3 64.8---
2024-07-13 05:54 am-------29.99- 64.6 52.3 64.6---
2024-07-13 05:48 am-------29.99- 64.4 52.3 64.4---
2024-07-13 05:42 am-------29.99- 64.4 52.5 64.4---
2024-07-13 05:36 am-------29.98- 64.4 52.3 64.4---
2024-07-13 05:30 am-------29.98- 64.4 52.5 64.4---
2024-07-13 05:24 am-------29.98- 64.4 52.3 64.4---
2024-07-13 05:18 am-------29.98- 64.4 52.3 64.4---
2024-07-13 05:12 am-------29.98- 64.6 52.3 64.6---
2024-07-13 05:06 am-------29.98- 64.4 52.3 64.4---
2024-07-13 05:00 am-------29.98+0.00- 52.3----
2024-07-13 04:54 am-------29.98-- 52.5----
2024-07-13 04:48 am-------29.98-- 52.5----
2024-07-13 04:42 am-------29.99-- 52.3----
2024-07-13 04:36 am-------29.98-- 52.3----
2024-07-13 04:30 am-------29.99- 64.8 52.5 64.8---
2024-07-13 04:24 am-------29.98- 64.8 52.3 64.8---
2024-07-13 04:18 am-------29.98- 64.8 52.3 64.8---
2024-07-13 04:12 am-------29.98- 64.6 52.3 64.6---
2024-07-13 04:06 am-------29.99- 64.8 52.5 64.8---
2024-07-13 04:00 am-------29.98+0.00 64.8 52.3 64.8---
2024-07-13 03:54 am-------29.98- 64.9 52.3 64.9---
2024-07-13 03:48 am-------29.98- 64.9 52.5 64.9---
2024-07-13 03:42 am-------29.98- 64.8 52.5 64.8---
2024-07-13 03:36 am-------29.98- 65.1 52.3 65.1---
2024-07-13 03:30 am-------29.98- 65.1 52.5 65.1---
2024-07-13 03:24 am-------29.98- 64.9 52.5 64.9---
2024-07-13 03:18 am--------- 64.9 52.5 64.9---
2024-07-13 03:12 am--------- 65.1 52.5 65.1---
2024-07-13 03:06 am--------- 65.3 52.5 65.3---
2024-07-13 03:00 am--------- 65.5 52.3 65.5---
2024-07-13 02:54 am--------- 65.8 52.5 65.8---
2024-07-13 02:48 am-------29.97- 65.8 52.5 65.8---
2024-07-13 02:42 am-------29.98- 66.0 52.5 66.0---
2024-07-13 02:36 am-------29.98- 66.2 52.3 66.2---
2024-07-13 02:30 am-------29.98- 66.6 52.3 66.6---
2024-07-13 02:24 am-------29.98- 66.4 52.5 66.4---
2024-07-13 02:18 am-------29.98- 66.4 52.5 66.4---
2024-07-13 02:12 am-------29.98- 66.7 52.5 66.7---
2024-07-13 02:06 am-------29.98- 66.4 52.5 66.4---
2024-07-13 02:00 am-------29.98-0.01 66.6 52.5 66.6---
2024-07-13 01:54 am-------29.98- 66.4 52.5 66.4---
2024-07-13 01:48 am-------29.98- 66.6 52.5 66.6---
2024-07-13 01:42 am-------29.98- 66.7 52.5 66.7---
2024-07-13 01:36 am-------29.98- 66.6 52.5 66.6---
2024-07-13 01:30 am-------29.98- 66.4 52.5 66.4---
2024-07-13 01:24 am-------29.98- 66.4 52.5 66.4---
2024-07-13 01:18 am-------29.98- 66.2 52.3 66.2---
2024-07-13 01:12 am-------29.98- 66.4 52.3 66.4---
2024-07-13 01:06 am-------29.99- 66.4 52.3 66.4---
2024-07-13 01:00 am-------29.98-0.01 66.6 52.3 66.6---
2024-07-13 12:54 am-------29.98- 66.9 52.3 66.9---
2024-07-13 12:48 am-------29.99- 66.9 52.3 66.9---
2024-07-13 12:42 am-------29.99- 66.9 52.3 66.9---
2024-07-13 12:36 am-------29.99- 66.9 52.3 66.9---
2024-07-13 12:30 am-------29.99- 66.7 52.3 66.7---
2024-07-13 12:24 am-------29.98- 66.9 52.3 66.9---
2024-07-13 12:18 am-------29.98- 66.9 52.3 66.9---
2024-07-13 12:12 am-------29.98- 66.6 52.3 66.6---
2024-07-13 12:06 am-------29.98- 66.6 52.3 66.6---
2024-07-13 12:00 am-------29.99+0.01 67.1 52.3 66.7---
2024-07-12 11:54 pm-------29.99- 67.3 52.3 67.1---
2024-07-12 11:48 pm-------29.99- 67.1 52.3 66.9---
2024-07-12 11:42 pm-------29.99- 67.5 52.3 67.3---
2024-07-12 11:36 pm-------29.99- 67.5 52.3 67.3---
2024-07-12 11:30 pm-------29.99- 67.6 52.3 67.5---
2024-07-12 11:24 pm-------29.99- 67.8 52.3 67.5---
2024-07-12 11:18 pm-------29.99- 67.8 52.5 67.6---
2024-07-12 11:12 pm-------29.99- 68.0 52.3 67.8---
2024-07-12 11:06 pm-------29.99- 68.2 52.3 68.0---
2024-07-12 11:00 pm-------29.99+0.03 68.4 52.3 68.0---
2024-07-12 10:54 pm-------30.00- 68.5 52.3 68.2---
2024-07-12 10:48 pm-------29.99- 68.7 52.3 68.4---
2024-07-12 10:42 pm-------29.99- 68.7 52.3 68.2---
2024-07-12 10:36 pm-------29.99- 68.9 52.3 68.5---
2024-07-12 10:30 pm-------29.99- 68.7 52.3 68.5---
2024-07-12 10:24 pm-------29.99- 68.9 52.3 68.7---
2024-07-12 10:18 pm-------29.99- 69.1 52.3 68.9---
2024-07-12 10:12 pm-------29.99- 69.1 52.3 68.7---
2024-07-12 10:06 pm-------30.00- 69.1 52.3 68.9---
2024-07-12 10:00 pm-------30.00+0.04 69.3 52.3 68.7---
2024-07-12 09:54 pm-------30.00- 69.6 52.3 68.9---
2024-07-12 09:48 pm-------29.99- 70.2 52.3 69.1---
2024-07-12 09:42 pm-------29.99- 69.8 52.3 68.9---
2024-07-12 09:36 pm-------29.99- 69.6 52.3 68.9---
2024-07-12 09:30 pm-------29.99- 69.6 52.3 68.9---
2024-07-12 09:24 pm-------29.99- 69.6 52.3 68.7---
2024-07-12 09:18 pm-------29.98- 70.3 52.3 68.9---
2024-07-12 09:12 pm-------29.98- 70.2 52.3 68.9---
2024-07-12 09:06 pm-------29.98- 70.3 52.3 68.7---
2024-07-12 09:00 pm-------29.98+0.03 70.0 52.3 68.7---
2024-07-12 08:54 pm-------29.98- 70.5 52.3 68.5---